FW5442 Weather Reports


time (UTC)temp
F
wind
direction
speed
knots
gust
knots
rain 1hr
in
rain 24hr
in
rain mn
in
humidity
%
barometer
mb
20260903182558 97 122 3.5 7.0 0.00 0.00 0.00 44 1014.3
20260903182053 97 131 1.7 7.0 0.00 0.00 0.00 45 1014.3
20260903181607 95 243 3.5 7.0 0.00 0.00 0.00 46 1014.4
20260903181052 96 207 1.7 3.5 0.00 0.00 0.00 47 1014.7
20260903180554 95 0 0.0 3.5 0.00 0.00 0.00 47 1014.6
20260903180113 95 119 0.9 4.3 0.00 0.00 0.00 47 1014.7
20260903175553 95 162 2.6 4.3 0.00 0.00 0.00 47 1014.7
20260903175055 95 123 1.7 7.0 0.00 0.00 0.00 48 1014.9
20260903174600 95 220 5.2 7.0 0.00 0.00 0.00 46 1015.1
20260903174053 96 207 2.6 7.0 0.00 0.00 0.00 47 1015.0
20260903173552 96 237 2.6 7.0 0.00 0.00 0.00 46 1015.1
20260903173106 97 149 2.6 7.8 0.00 0.00 0.00 45 1015.1
20260903172557 97 159 3.5 7.8 0.00 0.00 0.00 46 1015.2
20260903172053 96 120 3.5 7.8 0.00 0.00 0.00 47 1015.2
20260903171556 96 139 3.5 8.7 0.00 0.00 0.00 46 1015.3
20260903171054 95 133 4.3 8.7 0.00 0.00 0.00 48 1015.3
20260903170552 96 99 2.6 6.1 0.00 0.00 0.00 48 1015.4
20260903170219 96 167 2.6 5.2 0.00 0.00 0.00 48 1015.5
20260903165555 96 134 0.9 3.5 0.00 0.00 0.00 48 1015.5
20260903165055 95 0 0.0 5.2 0.00 0.00 0.00 50 1015.6
20260903164600 94 240 0.9 6.1 0.00 0.00 0.00 50 1015.6
20260903164053 93 328 1.7 6.1 0.00 0.00 0.00 52 1015.7
20260903163558 93 166 2.6 7.8 0.00 0.00 0.00 52 1015.7
20260903163103 92 249 1.7 7.8 0.00 0.00 0.00 52 1015.8
20260903162558 92 41 5.2 7.8 0.00 0.00 0.00 52 1015.7
20260903162054 92 266 3.5 7.8 0.00 0.00 0.00 53 1015.8
20260903161622 93 172 1.7 7.0 0.00 0.00 0.00 53 1015.8
20260903161053 92 348 2.6 6.1 0.00 0.00 0.00 55 1015.8
20260903160555 92 283 1.7 7.0 0.00 0.00 0.00 53 1015.8
20260903160101 91 230 2.6 7.8 0.00 0.00 0.00 54 1016.0
20260903155554 91 293 2.6 7.8 0.00 0.00 0.00 55 1016.1
20260903155053 91 298 0.9 7.8 0.00 0.00 0.00 54 1015.9
20260903154601 91 330 0.0 7.8 0.00 0.00 0.00 55 1015.9
20260903154053 90 288 5.2 7.8 0.00 0.00 0.00 55 1016.0
20260903153553 90 305 2.6 7.0 0.00 0.00 0.00 56 1015.9
20260903153057 90 302 3.5 9.6 0.00 0.00 0.00 57 1015.9
20260903152555 90 321 4.3 9.6 0.00 0.00 0.00 56 1015.7
20260903152054 90 5 2.6 9.6 0.00 0.00 0.00 57 1015.9
20260903151603 89 300 6.1 9.6 0.00 0.00 0.00 58 1015.9
20260903151058 89 328 3.5 9.6 0.00 0.00 0.00 58 1015.9
20260903150554 89 311 4.3 7.8 0.00 0.00 0.00 58 1015.8
20260903145555 89 288 3.5 9.6 0.00 0.00 0.00 58 1015.9
20260903145053 88 309 5.2 7.0 0.00 0.00 0.00 59 1015.9
20260903144602 88 278 4.3 9.6 0.00 0.00 0.00 59 1015.9
20260903144053 88 285 5.2 9.6 0.00 0.00 0.00 61 1015.7
20260903143554 88 283 5.2 9.6 0.00 0.00 0.00 60 1015.9
20260903143101 88 276 5.2 9.6 0.00 0.00 0.00 59 1016.0
20260903142557 87 277 6.1 9.6 0.00 0.00 0.00 61 1015.9
20260903142053 87 300 6.1 10.4 0.00 0.00 0.00 61 1015.9
20260903141602 87 304 6.1 11.3 0.00 0.00 0.00 62 1016.0
20260903141058 87 303 4.3 11.3 0.00 0.00 0.00 63 1016.2
20260903140555 87 268 6.1 11.3 0.00 0.00 0.00 63 1016.0
20260903140104 87 283 3.5 9.6 0.00 0.00 0.00 63 1016.0
20260903135555 86 284 4.3 9.6 0.00 0.01 0.00 65 1016.2
20260903135055 85 307 5.2 7.8 0.00 0.01 0.00 65 1016.1
20260903134603 85 305 4.3 7.0 0.00 0.01 0.00 67 1016.2
20260903134053 84 294 2.6 7.0 0.00 0.01 0.00 69 1016.2
20260903133553 84 311 3.5 6.1 0.00 0.01 0.00 69 1016.2
20260903133101 84 280 3.5 6.1 0.00 0.01 0.00 71 1016.3
20260903132554 84 294 4.3 6.1 0.00 0.01 0.00 71 1016.4
20260903132054 83 303 2.6 4.3 0.00 0.01 0.00 72 1016.3
20260903131609 83 331 2.6 4.3 0.00 0.01 0.00 73 1016.2
20260903131053 82 309 0.9 1.7 0.00 0.01 0.00 76 1016.3
20260903130554 81 6 0.0 3.5 0.00 0.01 0.00 78 1016.1
20260903130107 80 0 0.9 3.5 0.00 0.01 0.00 80 1016.2
20260903125555 80 274 2.6 3.5 0.00 0.01 0.00 80 1016.2
20260903125054 79 259 2.6 3.5 0.00 0.01 0.00 81 1016.1
20260903124626 79 0 0.0 0.9 0.00 0.01 0.00 81 1016.1
20260903124054 80 257 0.0 0.0 0.00 0.01 0.00 81 1016.1
20260903123554 79 0 0.0 0.0 0.00 0.01 0.00 81 1015.9
20260903123106 78 0 0.0 0.0 0.00 0.01 0.00 82 1015.9
20260903122553 78 0 0.0 0.0 0.00 0.01 0.00 83 1015.9
20260903122055 78 0 0.0 0.0 0.00 0.01 0.00 84 1015.8
20260903121606 77 0 0.0 0.0 0.00 0.01 0.00 85 1015.8
20260903121053 76 0 0.0 0.0 0.00 0.01 0.00 86 1015.7
20260903120554 76 0 0.0 0.9 0.00 0.01 0.00 87 1015.7
20260903120106 75 0 0.0 0.9 0.00 0.01 0.00 87 1015.7
20260903115556 75 165 0.0 0.9 0.00 0.01 0.00 89 1015.5
20260903115051 75 0 0.0 0.0 0.00 0.01 0.00 89 1015.5
20260903114614 74 0 0.0 0.0 0.00 0.01 0.00 90 1015.4
20260903114054 74 0 0.0 0.0 0.00 0.01 0.00 90 1015.5
20260903113554 74 0 0.0 0.0 0.00 0.01 0.00 90 1015.5
20260903113109 74 0 0.0 0.0 0.00 0.01 0.00 90 1015.4
20260903112554 74 0 0.0 0.0 0.00 0.01 0.00 90 1015.4
20260903112054 74 0 0.0 0.0 0.00 0.01 0.00 90 1015.3
20260903111603 74 0 0.0 0.0 0.00 0.01 0.00 88 1015.3
20260903111054 74 0 0.0 0.0 0.00 0.01 0.00 88 1015.2
20260903110554 74 0 0.0 0.0 0.00 0.01 0.00 88 1015.1
20260903110108 74 0 0.0 0.0 0.00 0.01 0.00 88 1015.0
20260903105555 74 0 0.0 0.0 0.00 0.01 0.00 88 1014.9
20260903105055 75 0 0.0 0.0 0.00 0.01 0.00 87 1014.9
20260903104607 75 0 0.0 0.0 0.00 0.01 0.00 87 1015.0
20260903104052 75 0 0.0 0.0 0.00 0.01 0.00 86 1014.9
20260903103554 75 0 0.0 0.0 0.00 0.01 0.00 86 1014.9
20260903103101 76 0 0.0 0.0 0.00 0.01 0.00 85 1014.9
20260903102552 76 0 0.0 0.0 0.00 0.01 0.00 85 1014.9
20260903102054 76 0 0.0 0.0 0.00 0.01 0.00 87 1015.0
20260903101602 75 0 0.0 0.0 0.00 0.01 0.00 87 1014.9
20260903101055 75 0 0.0 0.0 0.00 0.01 0.00 86 1014.8
20260903100557 75 0 0.0 0.0 0.00 0.01 0.00 86 1014.6
20260903100105 75 0 0.0 0.0 0.00 0.01 0.00 87 1014.7
20260903095557 75 0 0.0 0.0 0.00 0.01 0.00 86 1014.9
20260903095057 75 0 0.0 0.0 0.00 0.01 0.00 86 1014.8
20260903094605 75 0 0.0 0.0 0.00 0.01 0.00 85 1014.8
20260903094055 75 0 0.0 0.0 0.00 0.01 0.00 85 1014.7
20260903093556 76 0 0.0 0.0 0.00 0.01 0.00 86 1014.8
20260903093110 76 0 0.0 0.0 0.00 0.01 0.00 84 1014.8
20260903092559 76 0 0.0 0.0 0.00 0.01 0.00 83 1014.7
20260903092056 77 0 0.0 0.0 0.00 0.01 0.00 83 1014.6
20260903091605 77 0 0.0 0.0 0.00 0.01 0.00 84 1014.7
20260903091057 77 0 0.0 0.0 0.00 0.01 0.00 84 1014.7
20260903090557 77 0 0.0 0.0 0.00 0.01 0.00 83 1014.7
20260903090111 77 0 0.0 0.9 0.00 0.01 0.00 83 1014.7
20260903085557 77 0 0.0 0.9 0.00 0.01 0.00 83 1014.6
20260903085056 77 0 0.0 0.9 0.00 0.01 0.00 83 1014.5
20260903084618 77 0 0.0 0.0 0.00 0.01 0.00 84 1014.5
20260903084056 77 0 0.0 2.6 0.00 0.01 0.00 84 1014.5
20260903083558 76 0 0.0 2.6 0.00 0.01 0.00 85 1014.6
20260903083103 76 257 1.7 3.5 0.00 0.01 0.00 84 1014.7
20260903082556 76 257 1.7 3.5 0.00 0.01 0.00 85 1014.7
20260903082059 76 254 3.5 3.5 0.00 0.01 0.00 84 1014.7
20260903081559 77 249 3.5 3.5 0.00 0.01 0.00 84 1014.6
20260903081058 77 240 2.6 2.6 0.00 0.01 0.00 83 1014.6
20260903080557 78 243 0.0 2.6 0.00 0.01 0.00 81 1014.6
20260903080105 78 0 0.0 0.0 0.00 0.01 0.00 80 1014.6
20260903075556 78 0 0.0 0.0 0.00 0.01 0.00 80 1014.6
20260903075056 79 0 0.0 0.0 0.00 0.01 0.00 79 1014.5
20260903074604 79 0 0.0 0.0 0.00 0.01 0.00 78 1014.4
20260903074057 79 0 0.0 0.0 0.00 0.01 0.00 78 1014.4
20260903073558 79 0 0.0 0.0 0.00 0.01 0.00 78 1014.3
20260903073106 79 0 0.0 0.9 0.00 0.01 0.00 78 1014.4
20260903072552 79 0 0.0 1.7 0.00 0.01 0.00 78 1014.3
20260903072057 79 0 0.0 1.7 0.00 0.01 0.00 77 1014.4
20260903071603 79 88 0.9 2.6 0.00 0.01 0.00 78 1014.4
20260903071056 79 74 0.9 2.6 0.00 0.01 0.00 78 1014.5
20260903070556 79 79 1.7 2.6 0.00 0.01 0.00 79 1014.6
20260903065558 79 90 1.7 2.6 0.00 0.01 0.00 80 1014.6
20260903065056 79 84 1.7 2.6 0.00 0.01 0.00 80 1014.5
20260903064600 79 0 0.0 1.7 0.00 0.01 0.00 80 1014.7
20260903064056 79 0 0.0 2.6 0.00 0.01 0.00 80 1014.4
20260903063557 79 101 1.7 2.6 0.00 0.01 0.00 80 1014.5
20260903063106 79 88 1.7 3.5 0.00 0.01 0.00 80 1014.6
20260903062558 79 96 2.6 3.5 0.00 0.01 0.00 80 1014.7
20260903062053 79 86 2.6 3.5 0.00 0.01 0.00 80 1014.7
20260903061605 79 90 1.7 2.6 0.00 0.01 0.00 80 1014.7
20260903061057 79 92 2.6 2.6 0.00 0.01 0.00 80 1014.8
20260903060556 78 94 1.7 2.6 0.00 0.01 0.00 81 1014.7
20260903060106 78 82 1.7 2.6 0.00 0.01 0.00 81 1014.6
20260903055557 78 97 0.9 1.7 0.00 0.01 0.00 81 1014.8
20260903055057 78 106 0.9 1.7 0.00 0.01 0.00 81 1014.8
20260903054558 78 112 0.0 1.7 0.00 0.01 0.00 81 1014.9
20260903054053 78 126 0.9 1.7 0.00 0.01 0.00 81 1014.7
20260903053553 78 135 0.0 0.0 0.00 0.01 0.00 81 1014.6
20260903053101 78 0 0.0 0.9 0.00 0.01 0.00 81 1014.7
20260903052553 78 0 0.0 0.9 0.00 0.01 0.00 81 1014.5
20260903052054 78 146 0.9 0.9 0.00 0.01 0.00 81 1014.7
20260903051609 78 118 0.9 1.7 0.00 0.01 0.00 81 1014.6
20260903051052 78 122 0.9 2.6 0.00 0.01 0.00 81 1014.5
20260903050556 79 110 1.7 2.6 0.00 0.01 0.00 80 1014.5
20260903045555 80 89 1.7 3.5 0.00 0.01 0.01 79 1014.5
20260903045059 80 88 2.6 3.5 0.00 0.01 0.01 78 1014.3
20260903044601 80 77 2.6 3.5 0.00 0.01 0.01 77 1014.4
20260903044058 80 0 0.0 2.6 0.00 0.01 0.01 77 1014.5
20260903043553 80 88 0.9 2.6 0.00 0.01 0.01 77 1014.5
20260903043104 80 0 0.0 1.7 0.00 0.01 0.01 77 1014.4
20260903042557 80 0 0.9 1.7 0.00 0.01 0.01 77 1014.4
20260903042056 80 83 0.0 0.0 0.00 0.01 0.01 77 1014.5
20260903041601 81 0 0.0 0.0 0.00 0.01 0.01 76 1014.4
20260903041056 80 0 0.0 0.0 0.00 0.01 0.01 76 1014.4
20260903040557 80 0 0.0 0.0 0.00 0.01 0.01 76 1014.5
20260903040058 80 0 0.0 0.0 0.00 0.01 0.01 76 1014.5
20260903035555 80 0 0.0 0.0 0.00 0.01 0.01 76 1014.5
20260903035056 81 0 0.0 0.0 0.00 0.01 0.01 76 1014.5
20260903034602 80 0 0.0 0.0 0.00 0.01 0.01 76 1014.4
20260903034057 80 0 0.0 0.0 0.00 0.01 0.01 76 1014.4
20260903033618 80 0 0.0 0.0 0.00 0.01 0.01 76 1014.5
20260903033102 81 0 0.0 0.0 0.00 0.01 0.01 75 1014.6
20260903032556 81 0 0.0 0.0 0.00 0.01 0.01 74 1014.5
20260903032057 81 0 0.0 0.0 0.00 0.01 0.01 74 1014.5
20260903031601 81 0 0.0 0.0 0.00 0.01 0.01 74 1014.3
20260903031056 81 0 0.0 0.0 0.00 0.01 0.01 74 1014.4
20260903030556 81 0 0.0 0.0 0.00 0.01 0.01 74 1014.5
20260903030059 82 0 0.0 0.0 0.00 0.01 0.01 74 1014.5
20260903025553 82 0 0.0 0.0 0.00 0.01 0.01 74 1014.4
20260903025053 81 0 0.0 0.0 0.00 0.01 0.01 74 1014.6
20260903024604 81 0 0.0 0.0 0.00 0.01 0.01 75 1014.4
20260903024052 81 0 0.0 0.0 0.00 0.01 0.01 75 1014.4
20260903023559 81 0 0.0 0.0 0.00 0.01 0.01 74 1014.5
20260903023106 82 0 0.0 0.0 0.00 0.01 0.01 74 1014.5
20260903022556 82 0 0.0 0.0 0.00 0.01 0.01 74 1014.5
20260903022059 82 0 0.0 0.0 0.00 0.01 0.01 74 1014.4
20260903021602 82 0 0.0 0.0 0.00 0.01 0.01 73 1014.3
20260903021055 82 0 0.0 0.0 0.00 0.01 0.01 72 1014.3
20260903020556 82 0 0.0 0.0 0.00 0.01 0.01 72 1014.4
20260903020101 82 0 0.0 0.0 0.00 0.01 0.01 72 1014.3
20260903015553 83 0 0.0 0.9 0.00 0.01 0.01 72 1014.3
20260903015056 83 0 0.0 1.7 0.00 0.01 0.01 72 1014.1
20260903014611 83 0 0.0 1.7 0.00 0.01 0.01 72 1014.0
20260903014056 83 248 1.7 1.7 0.00 0.01 0.01 71 1014.1
20260903013556 83 245 1.7 1.7 0.00 0.01 0.01 71 1014.0
20260903013100 83 232 1.7 1.7 0.00 0.01 0.01 71 1014.0
20260903012557 83 232 0.9 2.6 0.00 0.01 0.01 70 1013.9
20260903012056 84 217 0.9 2.6 0.00 0.01 0.01 70 1013.9
20260903011600 84 225 1.7 2.6 0.00 0.01 0.01 69 1013.8
20260903011053 84 243 0.9 1.7 0.00 0.01 0.01 68 1013.8
20260903010553 84 260 0.9 4.3 0.00 0.01 0.01 68 1013.8
20260903010107 84 269 0.9 5.2 0.00 0.01 0.01 68 1013.9
20260903005555 85 229 4.3 6.1 0.00 0.01 0.01 67 1013.9
20260903005052 85 198 3.5 9.6 0.00 0.01 0.01 66 1013.9
20260903004602 86 210 4.3 9.6 0.00 0.01 0.01 64 1013.9
20260903004056 86 217 7.0 9.6 0.00 0.01 0.01 64 1014.0
20260903003557 87 236 7.0 8.7 0.00 0.01 0.01 62 1014.0
20260903003102 88 242 4.3 7.8 0.00 0.01 0.01 59 1013.9
20260903002556 88 191 6.1 7.8 0.00 0.01 0.01 58 1014.0
20260903002056 88 210 5.2 6.1 0.00 0.01 0.01 56 1013.9
20260903001608 89 154 3.5 4.3 0.00 0.01 0.01 56 1013.9
20260903001055 88 191 1.7 5.2 0.00 0.01 0.01 56 1013.9
20260903000556 88 152 2.6 5.2 0.00 0.01 0.01 57 1013.9
20260903000105 89 139 2.6 5.2 0.00 0.01 0.01 55 1013.9
20260902235553 89 169 3.5 7.0 0.00 0.01 0.01 55 1013.9
20260902235053 89 165 4.3 7.0 0.00 0.01 0.01 56 1013.8
20260902234608 89 212 6.1 7.8 0.00 0.01 0.01 57 1013.8
20260902234055 88 233 6.1 10.4 0.00 0.01 0.01 57 1013.7
20260902233559 88 224 6.1 13.0 0.00 0.01 0.01 57 1013.9
20260902233104 89 237 9.6 13.0 0.00 0.01 0.01 57 1013.9
20260902232555 89 236 7.8 11.3 0.00 0.01 0.01 57 1013.7
20260902232056 89 235 8.7 16.5 0.00 0.01 0.01 57 1013.6
20260902231603 89 214 10.4 20.0 0.00 0.01 0.01 57 1013.6
20260902231058 90 207 13.0 20.0 0.00 0.01 0.01 56 1013.9
20260902230555 91 209 13.0 18.2 0.00 0.01 0.01 54 1013.8
20260902230115 92 216 13.9 18.2 0.00 0.01 0.01 52 1013.8
20260902225556 93 189 7.8 10.4 0.00 0.01 0.01 51 1013.8
20260902225058 93 233 5.2 9.6 0.00 0.01 0.01 49 1013.6
20260902224601 93 239 5.2 9.6 0.00 0.01 0.01 50 1013.6
20260902224052 93 247 4.3 7.0 0.00 0.01 0.01 50 1013.6
20260902223552 93 269 3.5 7.8 0.00 0.01 0.01 51 1013.5
20260902223118 93 271 4.3 12.2 0.00 0.01 0.01 51 1013.6
20260902222557 93 299 4.3 12.2 0.00 0.01 0.01 50 1013.5
20260902222055 94 264 3.5 10.4 0.00 0.01 0.01 49 1013.5
20260902221559 95 295 4.3 7.8 0.00 0.01 0.01 47 1013.5
20260902221059 96 331 3.5 7.8 0.00 0.01 0.01 46 1013.5
20260902220557 96 299 3.5 6.1 0.00 0.01 0.01 45 1013.6
20260902220111 97 267 3.5 6.1 0.00 0.01 0.01 42 1013.5
20260902215552 97 285 3.5 7.8 0.00 0.01 0.01 41 1013.6
20260902215056 98 225 3.5 9.6 0.00 0.01 0.01 41 1013.6
20260902214601 98 229 5.2 9.6 0.00 0.01 0.01 40 1013.6
20260902214056 99 252 2.6 5.2 0.00 0.01 0.01 39 1013.5
20260902213554 99 0 1.7 6.1 0.00 0.01 0.01 41 1013.7
20260902213111 98 109 0.9 6.1 0.00 0.01 0.01 42 1013.7
20260902212556 98 110 3.5 7.0 0.00 0.01 0.01 41 1013.9
20260902212056 99 150 3.5 7.8 0.00 0.01 0.01 40 1013.8
20260902211608 99 128 2.6 7.8 0.00 0.01 0.01 39 1013.8
20260902211055 100 119 4.3 7.8 0.00 0.01 0.01 39 1013.8
20260902210555 100 78 1.7 4.3 0.00 0.01 0.01 40 1013.8
20260902210103 101 124 1.7 6.1 0.00 0.01 0.01 39 1013.8
20260902205557 99 234 1.7 8.7 0.00 0.01 0.01 40 1013.9
20260902205059 99 102 3.5 8.7 0.00 0.01 0.01 41 1014.0
20260902204605 98 134 5.2 8.7 0.00 0.01 0.01 41 1014.1
20260902204057 99 123 3.5 9.6 0.00 0.01 0.01 42 1014.0
20260902203555 98 155 3.5 9.6 0.00 0.01 0.01 41 1014.0
20260902203058 99 192 6.1 9.6 0.00 0.01 0.01 41 1014.1
20260902202556 100 214 5.2 8.7 0.00 0.01 0.01 41 1014.2
20260902202055 100 162 1.7 7.8 0.00 0.01 0.01 39 1014.3
20260902201603 99 246 5.2 9.6 0.00 0.01 0.01 41 1014.3
20260902201055 99 155 5.2 9.6 0.00 0.01 0.01 42 1014.2
20260902200555 98 164 2.6 8.7 0.00 0.01 0.01 41 1014.4
20260902200105 98 20 2.6 9.6 0.00 0.01 0.01 42 1014.4
20260902195556 98 85 2.6 9.6 0.00 0.01 0.01 41 1014.6
20260902195055 98 116 3.5 10.4 0.00 0.01 0.01 43 1014.4
20260902194605 97 219 3.5 10.4 0.00 0.01 0.01 43 1014.7
20260902194053 96 129 7.0 10.4 0.00 0.01 0.01 45 1014.8
20260902193556 95 165 4.3 8.7 0.00 0.01 0.01 48 1014.9
20260902193128 96 132 3.5 7.0 0.00 0.01 0.01 44 1014.9
20260902192552 96 122 2.6 6.1 0.00 0.01 0.01 45 1014.9
20260902192101 96 138 3.5 7.8 0.00 0.01 0.01 45 1015.1
20260902191605 96 133 4.3 7.8 0.00 0.01 0.01 47 1015.2
20260902191057 96 243 2.6 6.1 0.00 0.01 0.01 45 1015.2
20260902190555 96 170 2.6 7.8 0.00 0.01 0.01 46 1015.3
20260902190108 97 90 3.5 8.7 0.00 0.01 0.01 46 1015.4
20260902185556 97 92 3.5 8.7 0.00 0.01 0.01 46 1015.4
20260902185053 97 77 5.2 8.7 0.00 0.01 0.01 45 1015.6
20260902184658 97 118 4.3 8.7 0.00 0.01 0.01 45 1015.7
20260902184055 96 91 5.2 7.8 0.00 0.01 0.01 46 1015.8
20260902183557 96 108 4.3 7.8 0.00 0.01 0.01 47 1015.8
20260902183118 97 112 1.7 11.3 0.00 0.01 0.01 46 1015.9